Dutch Harbor, AK

7:03 PM AKST on February 20, 2018 (GMT -0900)
Unalaska

Weather History for PADU - June, 2013

Change the Weather History Date:

Saturday, June 15, 2013

  Actual Average Record
Temperature  
Mean Temperature 55 °F -  
Max Temperature 61 °F 51 °F 61 °F (2013)
Min Temperature 46 °F 40 °F 38 °F (1988)
Degree Days  
Heating Degree Days 10    
Growing Degree Days 5 (Base 50)    
Moisture  
Dew Point 45 °F    
Average Humidity 75    
Maximum Humidity 86    
Minimum Humidity 55    
Precipitation  
Precipitation 0.00 in - - ()
Sea Level Pressure  
Sea Level Pressure 29.97 in    
Wind  
Wind Speed 12 mph (SE)    
Max Wind Speed 17 mph    
Max Gust Speed 25 mph    
Visibility 10 miles    
Events Rain    
Averages and records for this station are not official NWS values.
T = Trace of Precipitation, MM = Missing Value Source: NWS Daily Summary

Daily Weather History Graph

Daily Weather History Graph

Search for Another Location

Airport or City:

Trip Planner

Search our weather history database for the weather conditions in past years. The results will help you decide how hot, cold, wet, or windy it might be!

Date:

Astronomy

Jun. 15, 2013 Rise Set
Actual Time 6:33 AM AKDT 11:39 PM AKDT
Civil Twilight 5:39 AM AKDT 12:33 AM AKDT
Nautical Twilight 3:57 AM AKDT 2:17 AM AKDT
Astronomical Twilight Sun does not rise Sun does not rise
Moon 2:21 PM AKDT (6/15) 2:26 AM AKDT (6/15)
Length of Visible Light 18h 53m
Length of Day
17h 05m
Waxing Crescent, 41% of the Moon is Illuminated
Jun 15
Waxing Crescent
Jun 16
First Quarter
Jun 23
Full
Jun 29
Last Quarter
Jul 7
New

Hourly Weather History & Observations

Time (AKDT) Temp. Dew Point Humidity Pressure Visibility Wind Dir Wind Speed Gust Speed Precip Events Conditions
12:54 AM 50.0 °F 44.6 °F 82% 29.90 in 10.0 mi SSE 15.0 mph 21.9 mph 0.00 in Rain Light Rain
12:56 AM 50.0 °F 45.0 °F 83% 29.92 in 10.0 mi SSE 16.1 mph 21.9 mph 0.00 in Rain Light Rain
1:30 AM 50.0 °F 44.6 °F 82% 29.90 in 10.0 mi SSE 16.1 mph 23.0 mph 0.00 in   Overcast
1:56 AM 50.0 °F 45.0 °F 83% 29.92 in 10.0 mi SE 16.1 mph 25.3 mph 0.00 in Rain Light Rain
2:41 AM 50.0 °F 44.6 °F 82% 29.91 in 10.0 mi SE 12.7 mph 20.7 mph 0.00 in   Overcast
2:56 AM 51.1 °F 45.0 °F 80% 29.92 in 10.0 mi SE 16.1 mph - 0.00 in   Overcast
3:27 AM 51.8 °F 46.4 °F 82% 29.90 in 10.0 mi SE 17.3 mph - N/A   Mostly Cloudy
3:56 AM 52.0 °F 46.0 °F 80% 29.92 in 10.0 mi SE 13.8 mph - N/A   Overcast
4:56 AM 51.1 °F 45.0 °F 80% 29.92 in 10.0 mi SE 10.4 mph - N/A   Mostly Cloudy
5:10 AM 51.8 °F 44.6 °F 76% 29.89 in 10.0 mi SE 16.1 mph 21.9 mph N/A   Mostly Cloudy
5:56 AM 51.1 °F 45.0 °F 80% 29.91 in 10.0 mi SSE 12.7 mph 19.6 mph N/A   Overcast
6:10 AM 51.8 °F 44.6 °F 76% 29.89 in 10.0 mi SSE 9.2 mph - N/A   Overcast
6:56 AM 51.1 °F 45.0 °F 80% 29.93 in 10.0 mi South 11.5 mph - N/A   Mostly Cloudy
7:56 AM 51.1 °F 45.0 °F 80% 29.94 in 10.0 mi South 8.1 mph - N/A   Mostly Cloudy
8:56 AM 52.0 °F 46.0 °F 80% 29.95 in 10.0 mi SE 3.5 mph - N/A   Mostly Cloudy
9:05 AM 53.6 °F 46.4 °F 77% 29.93 in 10.0 mi Variable 5.8 mph - N/A   Mostly Cloudy
9:56 AM 55.0 °F 46.9 °F 74% 29.95 in 10.0 mi SE 3.5 mph - N/A   Mostly Cloudy
10:13 AM 55.4 °F 46.4 °F 72% 29.94 in 10.0 mi SE 6.9 mph - N/A   Mostly Cloudy
10:56 AM 55.0 °F 46.9 °F 74% 29.96 in 10.0 mi South 10.4 mph - N/A   Mostly Cloudy
11:42 AM 55.4 °F 46.4 °F 72% 29.95 in 10.0 mi SE 16.1 mph - N/A   Scattered Clouds
11:56 AM 55.0 °F 46.9 °F 74% 29.98 in 10.0 mi SSE 15.0 mph 19.6 mph N/A   Scattered Clouds
12:56 PM 57.9 °F 46.9 °F 67% 29.98 in 10.0 mi SE 12.7 mph 17.3 mph N/A   Clear
1:56 PM 57.9 °F 46.0 °F 65% 29.99 in 10.0 mi SE 12.7 mph - N/A   Scattered Clouds
2:56 PM 59.0 °F 46.0 °F 62% 30.01 in 10.0 mi SSE 13.8 mph 19.6 mph N/A   Scattered Clouds
3:56 PM 60.1 °F 45.0 °F 57% 30.01 in 10.0 mi SSE 9.2 mph - N/A   Scattered Clouds
4:00 PM 60.8 °F 44.6 °F 55% 29.99 in 10.0 mi SSE 9.2 mph - N/A   Scattered Clouds
4:56 PM 57.0 °F 45.0 °F 64% 30.03 in 10.0 mi Variable 4.6 mph - N/A   Scattered Clouds
5:56 PM 55.0 °F 44.1 °F 67% 30.05 in 9.0 mi East 9.2 mph - N/A   Clear
6:56 PM 51.1 °F 44.1 °F 77% 30.06 in 10.0 mi WNW 5.8 mph - N/A   Clear
7:56 PM 50.0 °F 44.1 °F 80% 30.06 in 10.0 mi East 8.1 mph - N/A   Clear
8:56 PM 51.1 °F 44.1 °F 77% 30.06 in 10.0 mi ESE 6.9 mph - N/A   Clear
9:56 PM 50.0 °F 43.0 °F 77% 30.07 in 10.0 mi NW 4.6 mph - N/A   Clear
10:56 PM 50.0 °F 42.1 °F 74% 30.08 in 10.0 mi Calm Calm - N/A   Clear
11:56 PM 46.9 °F 43.0 °F 86% 30.10 in 10.0 mi Calm Calm - N/A   Clear